Weather History for Trinidad, CO

Change the Weather History Date:

Sunday, January 26, 2014

  Actual Average Record
Temperature  
Mean Temperature 43 °F 33 °F  
Max Temperature 63 °F 48 °F 76 °F (1982)
Min Temperature 23 °F 18 °F -2 °F (1963)
Degree Days  
Heating Degree Days 22 32  
Month to date heating degree days 811 852  
Since 1 July heating degree days 2990 3120  
Cooling Degree Days 0 0  
Month to date cooling degree days 0 0  
Year to date cooling degree days 0 0  
Moisture  
Dew Point 16 °F    
Average Humidity 43    
Maximum Humidity 75    
Minimum Humidity 11    
Precipitation  
Precipitation 0.00 in 0.01 in 0.18 in (1979)
Month to date precipitation 0.06 0.33  
Year to date precipitation 0.06 0.33  
Sea Level Pressure  
Sea Level Pressure 29.89 in    
Wind  
Wind Speed 13 mph (NW)    
Max Wind Speed 33 mph    
Max Gust Speed 46 mph    
Visibility 9 miles    
Events      
T = Trace of Precipitation, MM = Missing Value Source: NWS Daily Summary

Daily Weather History Graph

Daily Weather History Graph

Search for Another Location

Airport:

Trip Planner

Search our weather history database for the weather conditions in past years. The results will help you decide how hot, cold, wet, or windy it might be!

Date:

Astronomy

Jan. 26, 2014 Rise Set
Actual Time 7:04 AM MST 5:15 PM MST
Civil Twilight 6:36 AM MST 5:43 PM MST
Nautical Twilight 6:05 AM MST 6:14 PM MST
Astronomical Twilight 5:34 AM MST 6:45 PM MST
Moon 2:44 AM MST (1/26) 1:07 PM MST (1/26)
Length of Visible Light 11h 06m
Length of Day
10h 10m
Waning Crescent, 23% of the Moon is Illuminated
Jan 26
Waning Crescent
Jan 30
New
Feb 6
First Quarter
Feb 14
Full
Feb 22
Last Quarter

Hourly Weather History & Observations

Time (MST) Temp. Windchill Dew Point Humidity Pressure Visibility Wind Dir Wind Speed Gust Speed Precip Events Conditions
12:54 AM 32.0 °F 24.8 °F 15.1 °F 50% 29.84 in 10.0 mi West 8.1 mph - 0.00 in   Clear
1:54 AM 30.0 °F 20.5 °F 15.1 °F 54% 29.85 in 10.0 mi West 11.5 mph - 0.00 in   Clear
2:54 AM 32.0 °F 22.5 °F 15.1 °F 50% 29.84 in 10.0 mi West 12.7 mph - N/A   Clear
3:54 AM 28.0 °F 21.7 °F 14.0 °F 56% 29.87 in 10.0 mi West 5.8 mph - N/A   Clear
4:54 AM 27.0 °F 19.5 °F 14.0 °F 58% 29.90 in 10.0 mi WNW 6.9 mph - 0.00 in   Clear
5:54 AM 26.1 °F 16.8 °F 14.0 °F 60% 29.92 in 10.0 mi West 9.2 mph - N/A   Clear
6:54 AM 27.0 °F 18.0 °F 12.9 °F 56% 29.92 in 10.0 mi West 9.2 mph - N/A   Clear
7:54 AM 28.9 °F 19.8 °F 15.1 °F 56% 29.92 in 10.0 mi West 10.4 mph - N/A   Clear
8:54 AM 42.1 °F 37.7 °F 18.0 °F 38% 29.87 in 10.0 mi West 6.9 mph - 0.00 in   Clear
9:54 AM 50.0 °F - 16.0 °F 26% 29.83 in 10.0 mi South 4.6 mph - N/A   Clear
10:54 AM 52.0 °F - 15.1 °F 23% 29.81 in 10.0 mi Variable 3.5 mph - N/A   Clear
11:54 AM 54.0 °F - 16.0 °F 22% 29.78 in 10.0 mi Variable 4.6 mph - N/A   Clear
12:54 PM 57.9 °F - 14.0 °F 18% 29.72 in 10.0 mi Calm Calm - N/A   Clear
1:54 PM 63.0 °F - 6.1 °F 11% 29.67 in 10.0 mi NW 23.0 mph 31.1 mph N/A   Clear
2:54 PM 61.0 °F - 9.0 °F 13% 29.68 in 10.0 mi NW 27.6 mph 33.4 mph N/A   Clear
3:54 PM 59.0 °F - 10.0 °F 14% 29.70 in 10.0 mi WNW 26.5 mph 33.4 mph N/A   Clear
4:54 PM 55.0 °F - 10.0 °F 17% 29.73 in 10.0 mi NW 17.3 mph - N/A   Clear
5:54 PM 48.0 °F - 10.0 °F 22% 29.79 in 10.0 mi NW 13.8 mph - N/A   Clear
6:54 PM 46.9 °F - 16.0 °F 29% 29.86 in 10.0 mi North 21.9 mph 28.8 mph N/A   Clear
7:54 PM 41.0 °F 31.1 °F 23.0 °F 49% 29.98 in 10.0 mi NNE 23.0 mph 32.2 mph N/A   Clear
8:14 PM 37.0 °F 26.2 °F 24.1 °F 59% 30.03 in 3.0 mi NNE 21.9 mph 40.3 mph N/A   Haze
8:54 PM 33.1 °F 20.6 °F 25.0 °F 72% 30.09 in 4.0 mi NE 23.0 mph 31.1 mph N/A   Haze
9:14 PM 30.9 °F 19.4 °F 25.0 °F 79% 30.11 in 4.0 mi NE 17.3 mph - N/A   Haze
9:54 PM 28.0 °F 15.3 °F 21.0 °F 75% 30.08 in 10.0 mi NE 18.4 mph - 0.00 in   Overcast
10:08 PM 27.0 °F 13.9 °F 21.0 °F 78% 30.12 in 10.0 mi NE 18.4 mph 25.3 mph N/A   Overcast
10:54 PM 25.0 °F 14.2 °F 16.0 °F 69% 30.12 in 10.0 mi East 11.5 mph - N/A   Overcast
11:54 PM 23.0 °F 14.7 °F 18.0 °F 81% 30.11 in 7.0 mi East 6.9 mph - 0.00 in   Overcast